This demonstration page uses our WeatherBlox Daily Observations layout. Learn more.

Left ArrowRight Arrow

Hourly Observations for March 9, 2022

Temp ( °F °C ) Dew Point ( °F °C ) Humidity (%) Winds ( mph kmh ) Pressure ( in mb ) Visibility ( mi km ) Precip ( " mm )
12:02 am 00:02 Cloudy with Light Snow 12 -11.1 7 -13.9 80 80 WSW 8 13 30.49 1032 2 2 0.00 0.00
12:06 am 00:06 Mostly Cloudy with Light Snow 12 -11.1 7 -13.9 80 80 WSW 7 11 30.49 1032 1 1 0.00 0.00
12:17 am 00:17 Cloudy with Light Snow 12 -11.1 8 -13.3 84 84 WSW 7 11 30.49 1032 2 2 0.01 0.25
12:41 am 00:41 Cloudy with Light Snow 12 -11.1 8 -13.3 84 84 WSW 6 9 30.49 1032 2 3 0.01 0.25
12:50 am 00:50 Cloudy with Light Snow 10 -12 9 -13 92 92 WSW 6 9 30.50 1033 2 2 0.01 0.25
12:53 am 00:53 Cloudy with Light Snow 11 -11.7 8 -13.3 88 88 W 5 7 30.40 1030 2 2 0.01 0.25
1:15 am 01:15 Cloudy with Light Snow 11 -11.7 8 -13.3 88 88 SW 5 7 30.48 1032 3 4 0.00 0.00
1:23 am 01:23 Cloudy with Mist and Fog 8 -13.3 6 -14.4 92 92 SSW 6 9 30.49 1033 6 10 0.00 0.00
1:35 am 01:35 Partly Cloudy 6 -14.4 3 -16.1 87 87 SW 6 9 30.51 1033 10 16 0.00 0.00
1:53 am 01:53 Clear 5 -15 3 -16.1 91 91 W 6 9 30.40 1030 10 16 0.00 0.00
2:53 am 02:53 Mostly Clear 1 -17.2 -2 -18.9 87 87 W 7 11 30.41 1030 10 16 0.00 0.00
3:41 am 03:41 Mostly Cloudy 5 -15 1 -17.2 83 83 WNW 9 15 30.52 1034 10 16 0.00 0.00
3:48 am 03:48 Partly Cloudy 3 -16 1 -17 92 92 WNW 9 15 30.54 1034 10 16 0.00 0.00
3:53 am 03:53 Partly Cloudy 4 -15.6 1 -17.2 88 88 WNW 12 19 30.41 1030 10 16 0.00 0.00
4:07 am 04:07 Partly Cloudy 4 -15.6 1 -17.2 88 88 NW 10 17 30.53 1034 9 14 0.00 0.00
4:16 am 04:16 Mostly Cloudy 4 -15.6 1 -17.2 88 88 NW 9 15 30.53 1034 9 14 0.00 0.00
4:23 am 04:23 Partly Cloudy 3 -16.1 0 -17.8 87 87 W 7 11 30.54 1034 10 16 0.00 0.00
4:53 am 04:53 Clear 3 -16.1 0 -17.8 87 87 WNW 7 11 30.42 1030 10 16 0.00 0.00
5:26 am 05:26 Mostly Cloudy -1 -18.3 -5 -20.6 82 82 SW 7 11 30.57 1035 10 16 0.00 0.00
5:53 am 05:53 Partly Cloudy 0 -17.8 -4 -20 83 83 Calm 30.43 1030 10 16 0.00 0.00
6:53 am 06:53 Cloudy 3 -16.1 -1 -18.3 83 83 WNW 8 13 30.44 1031 10 16 0.00 0.00
7:53 am 07:53 Sunny 4 -15.6 0 -17.8 83 83 NW 10 17 30.46 1032 10 16 0.00 0.00
8:53 am 08:53 Sunny 7 -13.9 1 -17.2 76 76 NW 14 22 30.47 1032 10 16 0.00 0.00
9:53 am 09:53 Sunny 9 -12.8 0 -17.8 66 66 NW 14 22 30.47 1032 10 16 0.00 0.00
10:53 am 10:53 Mostly Sunny 10 -12.2 1 -17.2 67 67 VRB 5 7 30.46 1031 10 16 0.00 0.00
11:53 am 11:53 Sunny 12 -11.1 1 -17.2 61 61 NW 9 15 30.45 1031 10 16 0.00 0.00
12:53 pm 12:53 Mostly Cloudy 12 -11.1 1 -17.2 61 61 NW 10 17 30.43 1031 10 16 0.00 0.00
1:25 pm 13:25 Cloudy with Haze 13 -10.6 4 -15.6 67 67 WNW 15 24 30.49 1033 6 10 0.00 0.00
1:53 pm 13:53 Cloudy with Light Snow 11 -11.7 4 -15.6 73 73 WNW 13 20 30.42 1030 3 4 0.00 0.00
1:56 pm 13:56 Cloudy with Light Snow 11 -11.7 5 -15 77 77 WNW 12 19 30.49 1033 1 2 0.00 0.00
2:08 pm 14:08 Cloudy with Light Snow 12 -11.1 4 -15.6 70 70 WNW 14 22 30.49 1032 2 3 0.00 0.00
2:27 pm 14:27 Cloudy with Haze 12 -11.1 4 -15.6 70 70 WNW 10 17 30.48 1032 4 6 0.00 0.00
2:53 pm 14:53 Cloudy with Light Snow 13 -10.6 3 -16.1 64 64 WNW 15 24 30.41 1030 4 6 0.00 0.00
2:58 pm 14:58 Cloudy with Light Snow 12 -11.1 3 -16.1 67 67 WNW 14 22 30.47 1032 2 3 0.00 0.00
3:07 pm 15:07 Cloudy with Light Snow 12 -11.1 3 -16.1 67 67 WNW 10 17 30.46 1031 3 5 0.00 0.00
3:50 pm 15:50 Mostly Cloudy 12 -11 0 -18 57 57 WNW 16 26 30.44 1031 9 14 0.00 0.00
3:53 pm 15:53 Mostly Cloudy 13 -10.6 1 -17.2 59 59 WNW 17 28 30.38 1029 10 16 0.00 0.00
4:53 pm 16:53 Mostly Cloudy 14 -10 4 -15.6 64 64 W 17 28 30.36 1028 10 16 0.00 0.00
5:34 pm 17:34 Mostly Cloudy with Light Snow 11 -11.7 5 -15 77 77 W 14 22 30.42 1030 2 3 0.00 0.00
5:46 pm 17:46 Cloudy with Light Snow 12 -11.1 6 -14.4 77 77 W 9 15 30.41 1030 3 5 0.00 0.00
5:53 pm 17:53 Cloudy 12 -11.1 6 -14.4 77 77 WNW 12 19 30.35 1028 9 14 0.00 0.00
6:53 pm 18:53 Clear 4 -15.6 -2 -18.9 76 76 WSW 9 15 30.35 1028 10 16 0.00 0.00
7:53 pm 19:53 Clear 2 -16.7 -2 -18.9 83 83 SW 12 19 30.32 1027 10 16 0.00 0.00
8:53 pm 20:53 Clear 0 -17.8 -4 -20 83 83 SW 8 13 30.29 1026 10 16 0.00 0.00
9:53 pm 21:53 Clear 1 -17.2 -4 -20 79 79 SW 12 19 30.26 1025 10 16 0.00 0.00
10:53 pm 22:53 Clear 5 -15 0 -17.8 79 79 SW 13 20 30.22 1023 10 16 0.00 0.00
11:53 pm 23:53 Clear 7 -13.9 0 -17.8 73 73 SW 17 28 30.17 1022 10 16 0.00 0.00

Powered by AerisWeather